TimeCDT,TemperatureF,Dew PointF,Humidity,Sea Level PressureIn,VisibilityMPH,Wind Direction,Wind SpeedMPH,Gust SpeedMPH,PrecipitationIn,Events,Conditions,WindDirDegrees,DateUTC
12:53 AM,64.9,61.0,87,30.12,10.0,Calm,Calm,-,N/A,,Clear,0,2012-10-04 05:53:00
1:53 AM,64.0,61.0,90,30.13,7.0,Calm,Calm,-,N/A,,Clear,0,2012-10-04 06:53:00
2:53 AM,64.0,61.0,90,30.14,8.0,SE,3.5,-,N/A,,Clear,130,2012-10-04 07:53:00
3:53 AM,64.0,61.0,90,30.15,7.0,ESE,3.5,-,N/A,,Clear,120,2012-10-04 08:53:00
4:53 AM,63.0,61.0,93,30.16,6.0,ESE,3.5,-,N/A,,Clear,120,2012-10-04 09:53:00
5:53 AM,64.0,62.1,93,30.18,5.0,SE,3.5,-,N/A,,Clear,130,2012-10-04 10:53:00
6:53 AM,63.0,61.0,93,30.19,4.0,Calm,Calm,-,N/A,,Clear,0,2012-10-04 11:53:00
7:53 AM,64.0,62.1,93,30.22,3.0,Calm,Calm,-,N/A,,Clear,0,2012-10-04 12:53:00
8:53 AM,69.1,64.0,84,30.23,8.0,SSE,5.8,-,N/A,,Clear,150,2012-10-04 13:53:00
9:53 AM,73.0,64.0,73,30.24,10.0,SSE,4.6,-,N/A,,Clear,150,2012-10-04 14:53:00
10:53 AM,77.0,66.0,69,30.24,10.0,Variable,4.6,-,N/A,,Clear,0,2012-10-04 15:53:00
11:53 AM,80.1,64.0,58,30.22,10.0,Calm,Calm,-,N/A,,Partly Cloudy,0,2012-10-04 16:53:00
12:53 PM,80.1,63.0,56,30.20,10.0,SSE,4.6,-,N/A,,Scattered Clouds,160,2012-10-04 17:53:00
1:53 PM,81.0,61.0,50,30.18,10.0,Calm,Calm,-,N/A,,Partly Cloudy,0,2012-10-04 18:53:00
2:53 PM,84.0,60.1,44,30.16,10.0,East,4.6,-,0.00,Rain,Light Rain,100,2012-10-04 19:53:00
3:53 PM,84.0,59.0,43,30.16,10.0,SE,4.6,-,0.00,,Scattered Clouds,140,2012-10-04 20:53:00
4:53 PM,82.9,59.0,44,30.15,10.0,SSE,3.5,-,N/A,,Partly Cloudy,160,2012-10-04 21:53:00
5:53 PM,81.0,60.1,49,30.15,10.0,South,3.5,-,N/A,,Clear,180,2012-10-04 22:53:00
6:53 PM,75.0,63.0,66,30.14,10.0,Calm,Calm,-,N/A,,Clear,0,2012-10-04 23:53:00
7:53 PM,71.1,64.0,78,30.15,10.0,Calm,Calm,-,N/A,,Clear,0,2012-10-05 00:53:00
8:53 PM,70.0,64.0,81,30.15,9.0,Calm,Calm,-,N/A,,Clear,0,2012-10-05 01:53:00
9:53 PM,68.0,64.0,87,30.16,10.0,Calm,Calm,-,N/A,,Clear,0,2012-10-05 02:53:00
10:53 PM,66.9,63.0,87,30.16,8.0,Calm,Calm,-,N/A,,Clear,0,2012-10-05 03:53:00
11:53 PM,64.9,63.0,93,30.16,7.0,Calm,Calm,-,N/A,,Clear,0,2012-10-05 04:53:00